{"data":{"norad_id":65187,"intl_designator":"2025-175P","name":"STARLINK-34915","alt_names":[],"object_type":"PAYLOAD","status":"ACTIVE","operator":null,"country":"US","launch_date":"2025-08-14","launch_site_code":"AFWTR","launch_vehicle":null,"mission":null,"orbit_class":"UNKNOWN","rcs_meters":null,"size_class":null,"mass_kg":null,"dimensions":null,"purposes":["comms"],"wikipedia_slug":null,"has_3d_model":false,"image_url":null,"decayed_at":null,"tle_current":{"epoch":"2026-09-20T21:55:57.049536Z","epoch_age_seconds":84714,"freshness":"FRESH","line1":"1 65187U 25175P   26263.91385474  .00011696  00000+0  36401-3 0  9996","line2":"2 65187  97.2834 132.8509 0002034  88.8593 271.2883 15.33446558 62193","mean_motion":15.33446558,"eccentricity":0.0002034,"inclination_deg":97.2834,"raan_deg":132.8509,"arg_perigee_deg":88.8593,"mean_anomaly_deg":271.2883,"bstar":0.00036401,"rev_number":6219,"period_min":93.90610924701,"perigee_km":464.14653536558,"apogee_km":466.93054257483,"semimajor_km":6843.6755389702,"source":"CELESTRAK","updated_at":"2026-09-21T09:00:35.530260Z"}}}